FENGYUN 1C DEB, 30200

Orbit data source: Space-Track

FENGYUN 1C DEB, 30200 is space debris in SSO originally from a launch on Mon, 10 May 1999 UTC launched from the Taiyaun Space Center, China (TSC). Fengyun 1C debris stems from the Chinese weather satellite Fengyun-1C, which was intentionally destroyed by a Chinese anti-satellite missile in 2007. This event dramatically increased the amount of space debris, with thousands of trackable fragments posing hazards to satellites and human spaceflight. The Fengyun 1C debris cloud has become a focal point in discussions about space sustainability and the need for international regulations to prevent the creation of new debris.

Loading next visibility...
Identifier
30200, 1999-025VH
Orbit
SSO
Country
Flag of CNCN / PRC
Related business
Manufacturer
Unknown
Mission
Spacecraft
Bus & Motor
Unknown
Mass
Unknown
Launch date (UTC)
1999-05-10 (27 years ago)
Launch vehicle
Unknown
Launch site
Taiyaun Space Center, China (TSC)
Object type
Payload
Rocket body
Debris
Shape & HBR
Unknown shape, 0.1 m
Radar Cross Section
Small (<0.1 m²)

Expand to show TLE details & history
Last TLE update: 21 hours ago

TLE from 21 hours ago
0 FENGYUN 1C DEB
1 30200U 99025VH  26123.53516005  .00000275  00000-0  12926-3 0  9996
2 30200  99.1077 328.0893 0147388  54.2745 307.2040 14.22397808999985
Epoch: 2026-05-03T12:50Z
TLE epoch observation values (Epoch: 2026-05-03T12:50:37.828Z)
Latitude
-0.00005°
Longitude
-86.00562°
Altitude
757.028 km
Speed
7.509 km/s
True Right ascension
21h 52m 21s
True Declination
0° 00' 00"
Sunlit
Object was in daylight at epoch
Visualization orbit readout
Latitude
Unknown
Longitude
Unknown
Altitude
Unknown
Speed
Unknown
Apparent Right ascension
Unknown
Apparent Declination
Unknown
Sunlit
N/A
Visualization observer readout
Local Sidereal Time
17:29:04
Azimuth
Unknown
Elevation
Unknown
Doppler factor
Unknown
Orbital elements
Apogee altitude
920.439 km
Perigee altitude
708.419 km
Semi-major axis
7,192.566 km
Eccentricity
0.01474
Inclination
99.1077°
RAAN
328.0893°
Arg. of periapsis
54.2745°
True anomaly
305.84376°
Mean anomaly
307.204°
Eccentric anomaly
306.52539°
Mean motion
3.55809 °/min
Orbital period
101.18 mins
BSTAR
0.00012926
Loading maneuver chart data...
Computing Atmospheric mass density...

Documentation

Showing up to 5 results
|